This is the latest recevied weather packets stored in our database for station/object KC0FGX-1. If no packets are shown the sender has not sent any weather packets the latest 1 day(s).
| Time | Temp. | Humidity | Pressure | Rain* | Wind** | Luminosity | Snow |
|---|---|---|---|---|---|---|---|
| 1778047189 | 10° C | 62% | 1011.7 hPa | 0 mm | 0.89 m/s, 297° | - | - |
| 1778046190 | 10° C | 65% | 1011.5 hPa | 0 mm | 0.89 m/s, 286° | - | - |
| 1778045189 | 10° C | 65% | 1011.2 hPa | 0 mm | 0.45 m/s, 283° | - | - |
| 1778044189 | 10° C | 67% | 1011 hPa | 0 mm | 0.45 m/s, 279° | - | - |
| 1778043189 | 9.44° C | 69% | 1011.1 hPa | 0 mm | 0.45 m/s, 275° | - | - |
| 1778042189 | 9.44° C | 70% | 1010.7 hPa | 0 mm | 0 m/s | - | - |
| 1778041190 | 9.44° C | 71% | 1010.4 hPa | 0 mm | 0 m/s | - | - |
| 1778040189 | 8.89° C | 73% | 1010.4 hPa | 0 mm | 0 m/s | - | - |
| 1778039189 | 8.89° C | 79% | 1010.4 hPa | 0 mm | 0 m/s | - | - |
| 1778038190 | 9.44° C | 76% | 1010.3 hPa | 0 mm | 0 m/s | - | - |
| 1778037189 | 10° C | 76% | 1010.3 hPa | 0 mm | 0 m/s | - | - |
| 1778036189 | 9.44° C | 72% | 1010.3 hPa | 0 mm | 0 m/s | - | - |
| 1778035189 | 9.44° C | 78% | 1010.1 hPa | 0 mm | 0 m/s | - | - |
| 1778034189 | 9.44° C | 81% | 1010.2 hPa | 0 mm | 0 m/s | - | - |
| 1778033189 | 9.44° C | 80% | 1010.1 hPa | 0 mm | 0 m/s | - | - |
| 1778031189 | 10° C | 77% | 1009.7 hPa | 0 mm | 0 m/s | - | - |
| 1778030189 | 10° C | 75% | 1009.6 hPa | 0 mm | 0 m/s | - | - |
| 1778028190 | 11.11° C | 67% | 1009.2 hPa | 0 mm | 0 m/s | - | - |
| 1778027189 | 11.11° C | 64% | 1009.1 hPa | 0 mm | 0 m/s | - | - |
| 1778025189 | 11.67° C | 65% | 1009.2 hPa | 0 mm | 0 m/s | - | - |
| 1778024189 | 11.67° C | 60% | 1009.5 hPa | 0 mm | 0 m/s | - | - |
| 1778022189 | 11.67° C | 55% | 1009.3 hPa | 0 mm | 0.45 m/s, 339° | - | - |
| 1778021189 | 11.67° C | 50% | 1009.5 hPa | 0 mm | 0.45 m/s, 332° | - | - |
| 1778020189 | 11.67° C | 52% | 1009.4 hPa | 0 mm | 1.34 m/s, 321° | - | - |
| 1778019189 | 12.22° C | 50% | 1009.2 hPa | 0 mm | 0.45 m/s, 330° | - | - |
* Rain latest hour (hover to see other rain measurements)
** Current wind speed in m/s (hover to see current wind gust speed)